Starlink 34736

operational
NORAD ID: 64846 Int'l Des: 2025-152 Owner: SPXS Country: US Constellation: starlink
LEOCIRCULARRETROGRADESSO

About Starlink 34736

Description loading...

Live Position

Loading 3D Globe...

Upcoming Passes

Altitude History

Altitude vs Time

uPlot chart will show altitude changes over time

Two-Line Element Set

1 64846U 25152E 26061.14403438 .00004611 00000-0 32350-3 0 9993
2 64846 97.6024 278.0891 0002040 50.7383 309.4024 15.05655908 34288
Epoch: Mar 2, 2026 • Age: 26 hours

Current Status

Altitude 550.8 km
Velocity 7.59 km/s
Sub-Earth Point 18.99°N, 87.47°E
Launch Date Jul 19, 2025
Age 0.6 years
Type internet

Technical Details

Classification Payload
Mass 575.00 kg
Dry Mass 530.00 kg
Total Mass 575.00 kg
Length 0.30 m
Diameter 4.10 m
Span 29.00 m
Shape Box + pan
Manufacturer SPXS
Bus Type Starlink V2MO
Phase Status In Orbit
Owner/State SPXS/US

Large Constellations

Loading constellations...